[[{"header":{"parameterUnit":"m.s-1","parameterCategory":1,"la1":30.2991,"la2":30.254,"lo1":-89.0895,"lo2":-89.0444,"dy":0.0017,"dx":0.0017,"nx":28,"ny":28,"refTime":"2026-02-02T03:00:00:Z","depth":0,"parameterNumber":2,"parameterNumberName":"U-component_of_WINDS"},"data":[0,0,0,0,0,0,0,0,0,0,0,0,0,0,0,0,0,0,0,0,0,0,0,0,0,0,0,0,0,0,0,0,0,0,0,0,0,0,0,0,0,0,0,0,0,0,0,0,0,0,0,0,0,0,0,0,0,0,3.7252,3.7253,0,3.7363,3.7365,3.7366,3.7282,3.7278,3.7274,3.7271,3.7383,3.739,3.7396,0,0,0,0,0,0,0,0,0,0,0,0,0,3.6965,3.6971,3.7252,3.7253,3.7255,3.7363,3.7365,3.7366,3.7282,3.7278,3.7273,3.7269,3.7381,3.7389,3.7396,0,0,0,0,0,0,0,0,0,0,0,0,0,3.7085,3.6973,3.7252,3.7226,3.7225,3.7363,3.7365,3.7367,3.7283,3.7278,3.7272,3.7267,3.7379,3.7388,3.7398,3.7567,0,0,3.7427,3.7431,0,0,0,0,0,0,0,0,3.7078,3.7095,3.7228,3.7228,3.7227,3.7303,3.7305,3.7434,3.7284,3.7261,3.7271,3.7264,3.7361,3.7372,3.7405,3.7572,3.7577,3.7428,3.7434,3.7438,3.744,0,0,0,0,0,0,0,3.707,3.709,3.7296,3.723,3.7229,3.7208,3.7219,3.7329,3.734,3.7262,3.7257,3.7271,3.7359,3.7396,3.7407,3.7578,3.7428,3.7436,3.7442,3.7446,3.789,3.7896,0,0,0,0,0,0,3.7064,3.7084,3.7292,3.7299,3.7137,3.7218,3.723,3.7284,3.7339,3.7342,3.7276,3.7267,3.7382,3.7395,3.741,3.7612,3.7438,3.7447,3.7452,3.7885,3.7892,3.7898,0,0,0,0,0,0,3.7058,3.7084,3.7288,3.719,3.7214,3.7229,3.729,3.7289,3.7325,3.7349,3.735,3.7311,3.7378,3.7397,3.7529,3.7615,3.7451,3.746,3.7877,3.7887,3.7895,3.8017,0,0,0,0,0,0,3.705,3.7082,3.7147,3.7192,3.722,3.7405,3.7295,3.7295,3.7342,3.7331,3.7382,3.7385,3.7375,3.7515,3.7538,3.7625,3.7467,3.787,3.7882,3.7892,3.8005,3.8029,3.8049,0,0,0,0,0,3.704,3.7176,3.715,3.7176,3.7301,3.741,3.7426,3.7412,3.7349,3.7414,3.743,3.7383,3.7602,3.7529,3.7555,3.7646,3.7864,3.7878,3.7891,3.7995,3.8024,3.8049,0,0,0,0,0,0,3.7139,3.7181,3.7153,3.7308,3.7356,3.7396,3.7477,3.7444,3.751,3.7498,3.7477,3.749,3.7628,3.765,3.7568,3.7812,3.7723,3.7742,3.7793,3.7821,3.7842,3.7834,3.7475,0,0,0,0,0,3.7179,3.7265,3.7297,3.743,3.7456,3.7463,3.751,3.7495,3.7544,3.7564,3.7589,3.7638,3.7717,3.777,3.7845,3.8008,3.8018,3.8083,3.8105,3.8123,3.814,3.8228,3.8257,3.7943,3.7943,3.7943,0,0,3.7262,3.7296,3.7351,3.7451,3.7486,3.7575,3.748,3.7578,3.7644,3.7579,3.7705,3.7725,3.7779,3.7927,3.7994,3.7949,3.8229,3.8141,3.8155,3.8162,3.8245,3.8275,3.8301,3.7952,3.7951,3.7949,0,0,3.7459,3.7493,3.7608,3.7646,3.7702,3.7706,3.7733,3.7779,3.779,3.7916,3.787,3.7947,3.8085,3.8125,3.8163,3.8376,3.8336,3.8401,3.8516,3.8602,3.8627,3.8648,3.8724,3.8752,3.8418,3.8418,3.8418,0,3.7555,3.7687,3.7671,3.7773,3.7818,3.7764,3.788,3.7918,3.7995,3.8027,3.7977,3.8149,3.8181,3.8338,3.839,3.8423,3.8454,3.8395,3.8625,3.8646,3.8666,3.8738,3.8767,3.8426,3.8425,3.8424,3.8423,0,3.7802,3.7895,3.7981,3.8057,3.8112,3.8221,3.8221,3.8278,3.8259,3.8269,3.8398,3.8435,3.8516,3.8553,3.8535,3.8708,3.8679,3.8627,3.8537,3.8704,3.8771,3.8799,3.8437,3.8434,3.8432,3.843,0,0,3.8063,3.8131,3.8162,3.8197,3.8255,3.8326,3.8432,3.8512,3.8561,3.8617,3.8705,3.8823,3.8776,3.882,3.8806,3.8882,3.9048,3.8821,3.8822,3.8861,3.924,3.9278,3.9311,3.9022,3.9027,3.9032,3.9236,0,3.8263,3.8447,3.8436,3.861,3.8695,3.8646,3.8738,3.8784,3.8796,3.8869,3.8882,3.8966,3.8898,3.8924,3.8997,3.9012,3.9124,3.8998,3.9103,3.9107,3.9091,3.9346,3.9386,3.9577,3.9262,3.9266,3.927,0,3.8519,3.8584,3.8767,3.8812,3.8848,3.8931,3.9004,3.9075,3.9126,3.9129,3.9179,3.9153,3.9259,3.9167,3.9314,3.9229,3.9271,3.9286,3.9293,3.9301,3.9198,3.9361,3.9638,3.9666,3.9311,3.9308,3.9305,0,3.8691,3.8824,3.895,3.8981,3.9038,3.9098,3.9124,3.9169,3.9218,3.9282,3.9313,3.9389,3.943,3.9488,3.9483,3.9417,3.9632,3.954,3.9638,3.9638,3.9684,3.9681,3.9971,3.9714,3.9713,3.9713,3.9712,0,3.8914,3.9027,3.9028,3.9106,3.9232,3.9218,3.9343,3.9362,3.9403,3.9484,3.9446,3.9522,3.9511,3.9588,3.9585,3.9706,3.9725,3.9731,3.9728,3.9734,3.9733,3.9761,3.9747,3.972,3.9718,3.9717,3.9716,0,3.9127,3.9132,3.9266,3.9309,3.9323,3.9414,3.945,3.9523,3.9532,3.9635,3.9658,3.9672,3.976,3.9761,3.9862,3.986,4.0009,3.9992,3.9992,3.9988,4.0086,4.0076,4.0403,4.0445,4.0161,4.0163,4.0166,0,3.9268,3.9354,3.9407,3.9459,3.9489,3.9572,3.9622,3.9612,3.9666,3.9731,3.9797,3.9881,3.9948,4.0091,4.011,4.0187,4.0171,4.0281,4.0182,4.0185,4.0172,4.0167,4.0175,4.0299,4.0302,4.0305,4.0307,0,3.9519,3.9518,3.9591,3.9667,3.9728,3.9787,3.9841,3.9885,3.9881,3.9944,4.0034,4.0086,4.0189,4.0274,4.0348,4.0375,4.0341,4.0338,4.0365,4.0371,4.0367,4.037,4.0043,4.033,4.0328,4.0326,4.0325,4.0324,3.97,3.9774,3.9823,3.9907,3.9947,3.9999,4.007,4.0088,4.0163,4.0247,4.0237,4.0337,4.0386,4.0482,4.0515,4.0593,4.0555,4.0594,4.0604,4.0613,4.0623,4.0356,4.0607,4.0606,4.0606,4.0605,4.0605,0,3.9948,3.9978,4.0055,4.0132,4.0198,4.0161,4.022,4.0277,4.0366,4.0415,4.0482,4.0585,4.0667,4.0693,4.0773,4.083,4.0817,4.0851,4.0846,4.0853,4.0653,4.0622,4.0861,4.0861,4.0861,4.0861,4.0861,4.0861,4.0085,4.0209,4.0214,4.0357,4.0385,4.0483,4.052,4.0567,4.0606,4.0724,4.0792,4.0809,4.0848,4.093,4.1004,4.1009,4.104,4.1081,4.108,4.0893,4.0867,4.0842,4.0813,4.1088,4.1088,4.1273,4.1275,4.1276]},{"header":{"parameterUnit":"m.s-1","parameterCategory":1,"la1":30.2991,"la2":30.254,"lo1":-89.0895,"lo2":-89.0444,"dy":0.0017,"dx":0.0017,"nx":28,"ny":28,"refTime":"2026-02-02T03:00:00:Z","depth":0,"parameterNumber":3,"parameterNumberName":"V-component_of_WINDS"},"data":[0,0,0,0,0,0,0,0,0,0,0,0,0,0,0,0,0,0,0,0,0,0,0,0,0,0,0,0,0,0,0,0,0,0,0,0,0,0,0,0,0,0,0,0,0,0,0,0,0,0,0,0,0,0,0,0,0,0,-1.5904,-1.5904,0,-1.5928,-1.5928,-1.5929,-1.5897,-1.5895,-1.5894,-1.5893,-1.5917,-1.5919,-1.5921,0,0,0,0,0,0,0,0,0,0,0,0,0,-1.5831,-1.5832,-1.5904,-1.5904,-1.5905,-1.5928,-1.5928,-1.5929,-1.5897,-1.5895,-1.5894,-1.5893,-1.5917,-1.5919,-1.5921,0,0,0,0,0,0,0,0,0,0,0,0,0,-1.5859,-1.5833,-1.5904,-1.5892,-1.5891,-1.5928,-1.5928,-1.5929,-1.5897,-1.5895,-1.5894,-1.5892,-1.5916,-1.5919,-1.5921,-1.5972,0,0,-1.5929,-1.593,0,0,0,0,0,0,0,0,-1.5858,-1.5862,-1.5893,-1.5893,-1.5892,-1.5908,-1.5911,-1.5943,-1.5898,-1.5895,-1.5893,-1.5891,-1.5916,-1.5918,-1.5926,-1.5973,-1.5974,-1.5929,-1.5931,-1.5932,-1.5933,0,0,0,0,0,0,0,-1.5856,-1.5861,-1.5913,-1.5894,-1.5893,-1.5885,-1.5887,-1.5917,-1.5914,-1.5895,-1.5893,-1.5896,-1.5915,-1.5924,-1.5927,-1.5974,-1.5929,-1.5932,-1.5933,-1.5934,-1.6063,-1.6065,0,0,0,0,0,0,-1.5855,-1.586,-1.5913,-1.5914,-1.587,-1.5888,-1.589,-1.5904,-1.5914,-1.5914,-1.5897,-1.5894,-1.592,-1.5924,-1.5927,-1.5987,-1.5932,-1.5934,-1.5936,-1.6061,-1.6063,-1.6065,0,0,0,0,0,0,-1.5854,-1.586,-1.5912,-1.5886,-1.5892,-1.5891,-1.5907,-1.5906,-1.5915,-1.5916,-1.5915,-1.5907,-1.5919,-1.5924,-1.5961,-1.5987,-1.5936,-1.5938,-1.6059,-1.6062,-1.6064,-1.6106,0,0,0,0,0,0,-1.5852,-1.586,-1.5879,-1.5887,-1.5894,-1.5945,-1.5908,-1.5907,-1.5919,-1.5915,-1.5925,-1.5925,-1.5918,-1.5957,-1.5963,-1.599,-1.594,-1.6056,-1.606,-1.6063,-1.6102,-1.611,-1.6116,0,0,0,0,0,-1.585,-1.589,-1.588,-1.5887,-1.5918,-1.5947,-1.595,-1.5942,-1.5921,-1.5941,-1.5941,-1.5925,-1.5983,-1.5961,-1.5968,-1.5995,-1.6055,-1.6059,-1.6063,-1.6099,-1.6108,-1.6116,0,0,0,0,0,0,-1.5885,-1.5891,-1.588,-1.5924,-1.5935,-1.5941,-1.5965,-1.5952,-1.5969,-1.5965,-1.5953,-1.5956,-1.5995,-1.5999,-1.5974,-1.6045,-1.6016,-1.6021,-1.604,-1.6049,-1.6056,-1.6054,-1.5942,0,0,0,0,0,-1.5898,-1.5921,-1.5925,-1.5964,-1.597,-1.5967,-1.5979,-1.5971,-1.5982,-1.5986,-1.599,-1.6001,-1.6022,-1.6036,-1.6055,-1.6103,-1.6104,-1.6125,-1.6132,-1.6138,-1.6143,-1.6168,-1.6177,-1.6079,-1.6079,-1.6079,0,0,-1.5925,-1.5931,-1.5947,-1.5971,-1.5978,-1.6003,-1.5971,-1.5997,-1.6015,-1.5991,-1.6025,-1.6029,-1.604,-1.6083,-1.6102,-1.6087,-1.617,-1.6143,-1.6148,-1.615,-1.6173,-1.6182,-1.6191,-1.6082,-1.6081,-1.6081,0,0,-1.5987,-1.5994,-1.6027,-1.6035,-1.6047,-1.6045,-1.6053,-1.6061,-1.6062,-1.6097,-1.6079,-1.61,-1.6136,-1.6145,-1.6154,-1.622,-1.6205,-1.6227,-1.6263,-1.6288,-1.6296,-1.6302,-1.6325,-1.6334,-1.6232,-1.6232,-1.6232,0,-1.6019,-1.6055,-1.6045,-1.6073,-1.6084,-1.6064,-1.6097,-1.6105,-1.6123,-1.6131,-1.6115,-1.616,-1.6166,-1.621,-1.6227,-1.6235,-1.6243,-1.6225,-1.6295,-1.6302,-1.6308,-1.633,-1.6339,-1.6234,-1.6234,-1.6234,-1.6234,0,-1.6093,-1.6118,-1.6143,-1.6161,-1.6175,-1.6206,-1.6201,-1.6216,-1.6208,-1.6207,-1.6243,-1.625,-1.6271,-1.6281,-1.6273,-1.6324,-1.6315,-1.6297,-1.6268,-1.632,-1.634,-1.6349,-1.6238,-1.6237,-1.6236,-1.6236,0,0,-1.6177,-1.619,-1.6199,-1.6206,-1.6218,-1.6237,-1.6267,-1.6287,-1.63,-1.6314,-1.6338,-1.6369,-1.6353,-1.6364,-1.6357,-1.6379,-1.643,-1.6359,-1.6359,-1.6371,-1.6486,-1.6499,-1.6509,-1.642,-1.6422,-1.6423,-1.6485,0,-1.6238,-1.6289,-1.6282,-1.6331,-1.6354,-1.6335,-1.6361,-1.6371,-1.6371,-1.6391,-1.6391,-1.6414,-1.6391,-1.6397,-1.6418,-1.6419,-1.6453,-1.6415,-1.6443,-1.6444,-1.644,-1.6519,-1.6533,-1.6591,-1.6493,-1.6494,-1.6495,0,-1.6316,-1.6332,-1.6384,-1.6392,-1.6401,-1.6424,-1.6442,-1.6461,-1.6472,-1.6471,-1.6483,-1.6472,-1.6502,-1.6473,-1.6513,-1.6488,-1.6499,-1.6501,-1.6503,-1.6505,-1.6472,-1.6523,-1.6609,-1.6618,-1.6508,-1.6507,-1.6506,0,-1.6372,-1.6406,-1.6441,-1.6449,-1.6459,-1.6476,-1.6481,-1.6491,-1.6503,-1.6519,-1.6527,-1.6546,-1.6556,-1.6571,-1.6566,-1.6545,-1.6608,-1.6578,-1.6607,-1.6607,-1.6621,-1.662,-1.671,-1.6629,-1.6629,-1.6629,-1.6628,0,-1.644,-1.6472,-1.6466,-1.6488,-1.6523,-1.6515,-1.655,-1.6553,-1.6562,-1.6583,-1.6568,-1.6589,-1.6581,-1.6602,-1.6598,-1.6632,-1.6637,-1.6636,-1.6635,-1.6637,-1.6637,-1.6644,-1.664,-1.6631,-1.663,-1.663,-1.663,0,-1.6508,-1.6505,-1.6542,-1.6549,-1.6552,-1.6578,-1.6584,-1.6604,-1.6604,-1.6631,-1.6638,-1.6637,-1.666,-1.6656,-1.6682,-1.668,-1.6722,-1.6716,-1.6718,-1.6717,-1.6746,-1.6743,-1.6843,-1.6855,-1.6767,-1.6768,-1.6769,0,-1.6552,-1.6576,-1.6586,-1.6599,-1.6606,-1.6628,-1.664,-1.6633,-1.6647,-1.6662,-1.668,-1.6702,-1.6719,-1.6757,-1.6759,-1.6779,-1.6773,-1.6806,-1.6775,-1.6777,-1.6773,-1.6771,-1.6773,-1.6812,-1.6813,-1.6814,-1.6815,0,-1.6629,-1.6627,-1.6646,-1.6664,-1.668,-1.6694,-1.6707,-1.6719,-1.6713,-1.6729,-1.6753,-1.6766,-1.6793,-1.6814,-1.6833,-1.6838,-1.6826,-1.6824,-1.6832,-1.6835,-1.6835,-1.6835,-1.6734,-1.6822,-1.6821,-1.6821,-1.682,-1.682,-1.6686,-1.6706,-1.6717,-1.6738,-1.6747,-1.6759,-1.6779,-1.6781,-1.68,-1.6821,-1.6816,-1.6843,-1.6853,-1.6877,-1.6884,-1.6905,-1.6893,-1.6904,-1.6907,-1.691,-1.6913,-1.6832,-1.6909,-1.6908,-1.6908,-1.6908,-1.6908,0,-1.6762,-1.6768,-1.6788,-1.6806,-1.6823,-1.681,-1.6824,-1.6839,-1.6862,-1.6874,-1.6891,-1.6918,-1.6939,-1.6943,-1.6963,-1.6979,-1.6974,-1.6985,-1.6983,-1.6985,-1.6923,-1.6914,-1.6989,-1.6989,-1.6989,-1.6989,-1.6989,-1.6989,-1.6804,-1.6838,-1.6837,-1.6875,-1.6881,-1.6907,-1.6916,-1.6927,-1.6936,-1.6967,-1.6984,-1.6987,-1.6995,-1.7016,-1.7035,-1.7035,-1.7043,-1.7056,-1.7055,-1.6997,-1.6989,-1.6981,-1.6973,-1.7058,-1.7058,-1.7114,-1.7115,-1.7115]}]]